TimeEST,TemperatureF,Dew PointF,Humidity,Sea Level PressureIn,VisibilityMPH,Wind Direction,Wind SpeedMPH,Gust SpeedMPH,PrecipitationIn,Events,Conditions,WindDirDegrees,DateUTC
12:53 AM,19.9,8.1,60,30.29,10.0,Calm,Calm,-,N/A,,Overcast,0,2014-03-05 05:53:00
1:53 AM,19.9,8.1,60,30.30,10.0,NE,3.5,-,N/A,,Overcast,50,2014-03-05 06:53:00
2:53 AM,19.9,9.0,62,31.04,10.0,Calm,Calm,-,N/A,,Overcast,0,2014-03-05 07:53:00
3:53 AM,19.0,6.1,57,31.02,10.0,NNE,6.9,-,N/A,,Overcast,20,2014-03-05 08:53:00
4:53 AM,17.1,5.0,59,30.31,10.0,Calm,Calm,-,N/A,,Mostly Cloudy,0,2014-03-05 09:53:00
5:53 AM,18.0,5.0,57,31.10,10.0,NNE,5.8,-,N/A,,Overcast,20,2014-03-05 10:53:00
6:53 AM,17.1,5.0,59,30.38,10.0,NNE,6.9,-,N/A,,Mostly Cloudy,20,2014-03-05 11:53:00
7:53 AM,18.0,6.1,60,30.38,10.0,NNE,4.6,-,N/A,,Clear,20,2014-03-05 12:53:00
8:53 AM,19.9,9.0,62,28.21,10.0,NNE,9.2,-,N/A,,Clear,20,2014-03-05 13:53:00
9:53 AM,21.0,10.9,65,30.43,10.0,NNE,5.8,-,N/A,,Scattered Clouds,30,2014-03-05 14:53:00
10:53 AM,21.9,12.0,66,30.44,10.0,East,6.9,-,N/A,,Partly Cloudy,80,2014-03-05 15:53:00
11:53 AM,23.0,12.0,63,30.45,10.0,ENE,10.4,-,N/A,,Mostly Cloudy,70,2014-03-05 16:53:00
12:53 PM,21.9,10.0,60,30.48,9.0,East,9.2,-,N/A,,Overcast,80,2014-03-05 17:53:00
1:51 PM,23.0,10.4,59,30.44,10.0,East,11.5,-,0.00,,Overcast,80,2014-03-05 18:51:00
1:53 PM,23.0,10.9,60,30.47,10.0,ENE,8.1,-,0.00,,Overcast,70,2014-03-05 18:53:00
2:11 PM,21.2,12.2,68,30.44,2.5,NE,9.2,-,0.00,Snow,Light Snow,50,2014-03-05 19:11:00
2:20 PM,21.2,15.8,80,30.44,1.5,ENE,8.1,-,0.00,Snow,Light Snow,70,2014-03-05 19:20:00
2:26 PM,23.0,15.8,74,30.44,3.0,East,9.2,-,0.00,Snow,Light Snow,80,2014-03-05 19:26:00
2:43 PM,23.0,12.2,63,30.44,9.0,ENE,11.5,-,0.00,,Overcast,70,2014-03-05 19:43:00
2:53 PM,23.0,12.0,63,30.48,10.0,East,12.7,-,0.00,,Overcast,80,2014-03-05 19:53:00
3:53 PM,21.9,10.9,63,30.50,10.0,ENE,11.5,-,0.00,,Overcast,60,2014-03-05 20:53:00
4:53 PM,21.9,12.9,68,28.33,7.0,NE,11.5,-,0.00,Snow,Light Snow,50,2014-03-05 21:53:00
5:53 PM,19.9,9.0,62,30.52,10.0,NE,10.4,-,0.00,,Overcast,50,2014-03-05 22:53:00
6:53 PM,19.0,7.0,59,30.55,10.0,ENE,6.9,-,N/A,,Partly Cloudy,70,2014-03-05 23:53:00
7:53 PM,18.0,3.9,54,30.56,10.0,NE,3.5,-,N/A,,Clear,40,2014-03-06 00:53:00
8:53 PM,16.0,3.9,59,30.56,10.0,NE,5.8,-,N/A,,Clear,50,2014-03-06 01:53:00
9:53 PM,16.0,8.1,71,30.55,10.0,NE,8.1,-,N/A,,Clear,40,2014-03-06 02:53:00
10:53 PM,15.1,8.1,74,30.55,10.0,NE,6.9,-,N/A,,Clear,50,2014-03-06 03:53:00
11:53 PM,12.9,7.0,77,30.55,10.0,ENE,5.8,-,N/A,,Clear,70,2014-03-06 04:53:00